World > North America > United States > Ohio > North Jackson  

North Jackson, OH Hourly Weather Updates

Feedback E-mail the Weather

Quick Clicks

North Jackson, OH Weather Maps

°F °C°F °C
North Jackson Weather Map
UTC Time: 4/17/2024, 09:43
Your Time:

North Jackson, OH Regional Weather

Expires:202404171000;;889991
ASUS41 KCLE 170912
RWRCLE
OHIO REGIONAL WEATHER ROUNDUP
NATIONAL WEATHER SERVICE WILMINGTON, OH
500 AM EDT WED APR 17 2024

NOTE: "FAIR" INDICATES FEW OR NO CLOUDS BELOW 12,000 FEET WITH NO
SIGNIFICANT WEATHER AND/OR OBSTRUCTIONS TO VISIBILITY.


OHZ009>014-019>023-028>033-038-089-171000-
   NORTHEAST OHIO
  
CITY           SKY/WX    TMP DP  RH WIND       PRES   REMARKS
CLE-HOPKINS    CLOUDY    66  43  43 S9        29.86F                  
CLE-LAKEFRONT  FAIR      69  42  37 S17G26    29.86S                  
CUY CO. ARPT   FAIR      65  40  40 S10       29.89F                  
LORAIN-ELYRIA  FAIR      66  47  50 S8        29.88R                  
ASHTABULA      MOCLDY    58  41  53 E9        29.93S                  
AKRON-CANTON   CLOUDY    63  47  55 S9        29.92R                  
WOOSTER        CLOUDY    66  53  63 S10       29.91S                  
MANSFIELD      FAIR      66  52  60 S10       29.89S                  
YOUNGSTOWN     CLOUDY    62  40  44 SE10      29.93F                  
$$
 

SKY/WX - Weather  TMP - Temperature  DP - Dew Point  RH - Humidity
WIND - Wind Direction/Speed PRES - Barometric Pressure VSB - Visibility
WCI - Wind Chill Index E13G22 Wind - East Wind 13 mph/Gusts of 22 mph

Trending Headlines

Trending Entertainment Headlines

North Jackson Radar Loop

Use the map search tool if you want to place a location marker on the radar map...

North Jackson Quick Facts

National Two Day Weather Forecast


E-mail the North Jackson Weather Forecast

Voice your opinion or tell us about page issues...